Year,Month,Day,Hour,Minute,Value (Times are PST for temperature in C)
2009,04,24,00,00,2.60
2009,04,24,00,01,2.60
2009,04,24,00,02,2.60
2009,04,24,00,03,2.60
2009,04,24,00,04,2.60
2009,04,24,00,05,2.50
2009,04,24,00,06,2.50
2009,04,24,00,07,2.50
2009,04,24,00,08,2.40
2009,04,24,00,09,2.40
2009,04,24,00,10,2.40
2009,04,24,00,11,2.40
2009,04,24,00,12,2.40
2009,04,24,00,13,2.40
2009,04,24,01,02,1.80
2009,04,24,01,03,1.80
2009,04,24,01,04,1.80
2009,04,24,01,05,1.80
2009,04,24,01,06,1.80
2009,04,24,01,07,1.80
2009,04,24,01,08,1.80
2009,04,24,01,09,1.80
2009,04,24,01,10,1.80
2009,04,24,01,11,1.80
2009,04,24,01,12,1.80
2009,04,24,01,13,1.80
2009,04,24,01,14,1.70
2009,04,24,01,15,1.70
2009,04,24,01,16,1.70
2009,04,24,01,17,1.70
2009,04,24,01,18,1.70
2009,04,24,01,19,1.70
2009,04,24,01,20,1.60
2009,04,24,01,21,1.60
2009,04,24,01,22,1.60
2009,04,24,01,23,1.60
2009,04,24,01,24,1.60
2009,04,24,01,25,1.60
2009,04,24,01,26,1.50
2009,04,24,01,27,1.50
2009,04,24,01,28,1.50
2009,04,24,01,29,1.40
2009,04,24,01,30,1.40
2009,04,24,01,31,1.40
2009,04,24,01,32,1.30
2009,04,24,01,33,1.30
2009,04,24,01,34,1.30
2009,04,24,01,35,1.30
2009,04,24,01,36,1.30
2009,04,24,01,37,1.30
2009,04,24,01,38,1.30
2009,04,24,01,39,1.30
2009,04,24,01,40,1.30
2009,04,24,01,41,1.30
2009,04,24,01,42,1.30
2009,04,24,01,43,1.30
2009,04,24,01,44,1.30
2009,04,24,01,45,1.30
2009,04,24,01,46,1.30
2009,04,24,01,47,1.30
2009,04,24,01,48,1.30
2009,04,24,01,49,1.30
2009,04,24,01,50,1.30
2009,04,24,01,51,1.30
2009,04,24,01,52,1.30
2009,04,24,01,53,1.20
2009,04,24,01,54,1.20
2009,04,24,01,55,1.20
2009,04,24,01,56,1.20
2009,04,24,01,57,1.20
2009,04,24,01,58,1.10
2009,04,24,01,59,1.10
2009,04,24,02,00,1.10
2009,04,24,02,01,1.10
2009,04,24,02,02,1.00
2009,04,24,02,03,1.00
2009,04,24,02,04,1.00
2009,04,24,02,05,1.00
2009,04,24,02,06,1.00
2009,04,24,02,07,1.00
2009,04,24,02,08,1.00
2009,04,24,02,09,1.00
2009,04,24,02,10,1.00
2009,04,24,02,11,1.00
2009,04,24,02,12,1.00
2009,04,24,02,13,0.90
2009,04,24,02,14,0.90
2009,04,24,02,15,0.90
2009,04,24,02,16,0.90
2009,04,24,02,17,0.90
2009,04,24,02,18,0.90
2009,04,24,02,19,0.90
2009,04,24,02,20,0.90
2009,04,24,02,21,0.80
2009,04,24,02,22,0.80
2009,04,24,02,23,0.80
2009,04,24,02,24,0.80
2009,04,24,02,25,0.80
2009,04,24,02,26,0.80
2009,04,24,02,27,0.80
2009,04,24,02,28,0.70
2009,04,24,02,29,0.70
2009,04,24,02,30,0.70
2009,04,24,02,31,0.70
2009,04,24,02,32,0.70
2009,04,24,02,33,0.70
2009,04,24,02,34,0.70
2009,04,24,02,35,0.70
2009,04,24,02,36,0.70
2009,04,24,02,37,0.60
2009,04,24,02,38,0.60
2009,04,24,02,39,0.60
2009,04,24,02,40,0.60
2009,04,24,02,41,0.50
2009,04,24,02,42,0.50
2009,04,24,02,43,0.50
2009,04,24,02,44,0.40
2009,04,24,02,45,0.40
2009,04,24,02,46,0.40
2009,04,24,02,47,0.40
2009,04,24,02,48,0.40
2009,04,24,02,49,0.40
2009,04,24,02,50,0.40
2009,04,24,02,51,0.40
2009,04,24,02,52,0.40
2009,04,24,02,53,0.40
2009,04,24,02,54,0.40
2009,04,24,02,55,0.40
2009,04,24,02,56,0.40
2009,04,24,02,57,0.40
2009,04,24,02,58,0.40
2009,04,24,02,59,0.40
2009,04,24,03,00,0.40
2009,04,24,03,01,0.40
2009,04,24,03,02,0.40
2009,04,24,03,03,0.40
2009,04,24,03,04,0.30
2009,04,24,03,05,0.30
2009,04,24,03,06,0.30
2009,04,24,03,07,0.30
2009,04,24,03,08,0.30
2009,04,24,03,09,0.30
2009,04,24,03,10,0.30
2009,04,24,03,11,0.20
2009,04,24,03,12,0.20
2009,04,24,03,13,0.20
2009,04,24,03,14,0.20
2009,04,24,03,15,0.10
2009,04,24,03,16,0.10
2009,04,24,03,17,0.10
2009,04,24,03,18,0.10
2009,04,24,03,19,0.10
2009,04,24,03,20,0.10
2009,04,24,03,21,0.10
2009,04,24,03,22,0.10
2009,04,24,03,23,0.10
2009,04,24,03,24,0.20
2009,04,24,03,25,0.20
2009,04,24,03,26,0.20
2009,04,24,03,27,0.20
2009,04,24,03,28,0.20
2009,04,24,03,29,0.20
2009,04,24,03,30,0.20
2009,04,24,03,31,0.20
2009,04,24,03,32,0.20
2009,04,24,03,33,0.20
2009,04,24,03,34,0.20
2009,04,24,03,35,0.20
2009,04,24,03,36,0.10
2009,04,24,03,37,0.10
2009,04,24,03,38,0.10
2009,04,24,03,39,0.10
2009,04,24,03,40,0.10
2009,04,24,03,41,0.10
2009,04,24,03,42,0.10
2009,04,24,03,43,0.00
2009,04,24,03,44,0.00
2009,04,24,03,45,0.00
2009,04,24,03,46,-0.10
2009,04,24,03,47,-0.10
2009,04,24,03,48,-0.10
2009,04,24,03,49,-0.10
2009,04,24,03,50,-0.10
2009,04,24,03,51,-0.10
2009,04,24,03,52,-0.20
2009,04,24,03,53,-0.20
2009,04,24,03,54,-0.20
2009,04,24,03,55,-0.20
2009,04,24,03,56,-0.20
2009,04,24,03,57,-0.30
2009,04,24,03,58,-0.30
2009,04,24,03,59,-0.30
2009,04,24,04,00,-0.30
2009,04,24,04,01,-0.30
2009,04,24,04,02,-0.40
2009,04,24,04,03,-0.40
2009,04,24,04,04,-0.50
2009,04,24,04,05,-0.50
2009,04,24,04,06,-0.50
2009,04,24,04,07,-0.60
2009,04,24,04,08,-0.60
2009,04,24,04,09,-0.60
2009,04,24,04,10,-0.60
2009,04,24,04,11,-0.60
2009,04,24,04,12,-0.60
2009,04,24,04,13,-0.60
2009,04,24,04,14,-0.60
2009,04,24,04,15,-0.60
2009,04,24,04,16,-0.50
2009,04,24,04,17,-0.50
2009,04,24,04,18,-0.40
2009,04,24,04,19,-0.40
2009,04,24,04,20,-0.40
2009,04,24,04,21,-0.40
2009,04,24,04,22,-0.30
2009,04,24,04,23,-0.30
2009,04,24,04,24,-0.30
2009,04,24,04,25,-0.30
2009,04,24,04,26,-0.30
2009,04,24,04,27,-0.30
2009,04,24,04,28,-0.30
2009,04,24,04,29,-0.30
2009,04,24,04,30,-0.40
2009,04,24,04,31,-0.40
2009,04,24,04,32,-0.40
2009,04,24,04,33,-0.40
2009,04,24,04,34,-0.40
2009,04,24,04,35,-0.40
2009,04,24,04,36,-0.40
2009,04,24,04,37,-0.40
2009,04,24,04,38,-0.50
2009,04,24,04,39,-0.50
2009,04,24,04,40,-0.50
2009,04,24,04,41,-0.50
2009,04,24,04,42,-0.50
2009,04,24,04,43,-0.50
2009,04,24,04,44,-0.60
2009,04,24,04,45,-0.60
2009,04,24,04,46,-0.60
2009,04,24,04,47,-0.60
2009,04,24,04,48,-0.60
2009,04,24,04,49,-0.70
2009,04,24,04,50,-0.70
2009,04,24,04,51,-0.70
2009,04,24,04,52,-0.70
2009,04,24,04,53,-0.70
2009,04,24,04,54,-0.70
2009,04,24,04,55,-0.70
2009,04,24,04,56,-0.80
2009,04,24,04,57,-0.80
2009,04,24,04,58,-0.80
2009,04,24,04,59,-0.80
2009,04,24,05,00,-0.80
2009,04,24,05,01,-0.80
2009,04,24,05,02,-0.80
2009,04,24,05,03,-0.80
2009,04,24,05,04,-0.80
2009,04,24,05,05,-0.80
2009,04,24,05,06,-0.80
2009,04,24,05,07,-0.80
2009,04,24,05,08,-0.80
2009,04,24,05,09,-0.80
2009,04,24,05,10,-0.80
2009,04,24,05,11,-0.80
2009,04,24,05,12,-0.80
2009,04,24,05,13,-0.80
2009,04,24,05,14,-0.80
2009,04,24,05,15,-0.80
2009,04,24,05,16,-0.80
2009,04,24,05,17,-0.80
2009,04,24,05,18,-0.80
2009,04,24,05,19,-0.70
2009,04,24,05,20,-0.70
2009,04,24,05,21,-0.70
2009,04,24,05,22,-0.70
2009,04,24,05,23,-0.60
2009,04,24,05,24,-0.60
2009,04,24,05,25,-0.60
2009,04,24,05,26,-0.60
2009,04,24,05,27,-0.60
2009,04,24,05,28,-0.60
2009,04,24,05,29,-0.60
2009,04,24,05,30,-0.60
2009,04,24,05,31,-0.60
2009,04,24,05,32,-0.60
2009,04,24,05,33,-0.60
2009,04,24,05,34,-0.60
2009,04,24,05,35,-0.60
2009,04,24,05,36,-0.60
2009,04,24,05,37,-0.60
2009,04,24,05,38,-0.60
2009,04,24,05,39,-0.60
2009,04,24,05,40,-0.70
2009,04,24,05,41,-0.60
2009,04,24,05,42,-0.70
2009,04,24,05,43,-0.70
2009,04,24,05,44,-0.70
2009,04,24,05,45,-0.70
2009,04,24,05,46,-0.70
2009,04,24,05,47,-0.60
2009,04,24,05,48,-0.60
2009,04,24,05,49,-0.60
2009,04,24,05,50,-0.60
2009,04,24,05,51,-0.50
2009,04,24,05,52,-0.50
2009,04,24,05,53,-0.50
2009,04,24,05,54,-0.50
2009,04,24,05,55,-0.50
2009,04,24,05,56,-0.60
2009,04,24,05,57,-0.60
2009,04,24,05,58,-0.60
2009,04,24,05,59,-0.60
2009,04,24,06,00,-0.60
2009,04,24,06,01,-0.60
2009,04,24,06,02,-0.70
2009,04,24,06,03,-0.70
2009,04,24,06,04,-0.70
2009,04,24,06,05,-0.70
2009,04,24,06,06,-0.80
2009,04,24,06,07,-0.80
2009,04,24,06,08,-0.80
2009,04,24,06,09,-0.80
2009,04,24,06,10,-0.80
2009,04,24,06,11,-0.80
2009,04,24,06,12,-0.80
2009,04,24,06,13,-0.90
2009,04,24,06,14,-0.90
2009,04,24,06,15,-0.90
2009,04,24,06,16,-0.90
2009,04,24,06,17,-1.00
2009,04,24,06,18,-1.00
2009,04,24,06,19,-1.00
2009,04,24,06,20,-1.00
2009,04,24,06,21,-1.00
2009,04,24,06,22,-1.00
2009,04,24,06,23,-1.00
2009,04,24,06,24,-1.00
2009,04,24,06,25,-0.90
2009,04,24,06,26,-0.90
2009,04,24,06,27,-0.90
2009,04,24,06,28,-0.90
2009,04,24,06,29,-0.90
2009,04,24,06,30,-0.90
2009,04,24,06,31,-0.90
2009,04,24,06,32,-0.80
2009,04,24,06,33,-0.80
2009,04,24,06,34,-0.80
2009,04,24,06,35,-0.80
2009,04,24,06,36,-0.80
2009,04,24,06,37,-0.70
2009,04,24,06,38,-0.70
2009,04,24,06,39,-0.70
2009,04,24,06,40,-0.70
2009,04,24,06,41,-0.70
2009,04,24,06,42,-0.70
2009,04,24,06,43,-0.70
2009,04,24,06,44,-0.70
2009,04,24,06,45,-0.70
2009,04,24,06,46,-0.70
2009,04,24,06,47,-0.70
2009,04,24,06,48,-0.70
2009,04,24,06,49,-0.70
2009,04,24,06,50,-0.70
2009,04,24,06,51,-0.70
2009,04,24,06,52,-0.70
2009,04,24,06,53,-0.70
2009,04,24,06,54,-0.70
2009,04,24,06,55,-0.70
2009,04,24,06,56,-0.70
2009,04,24,06,57,-0.70
2009,04,24,06,58,-0.70
2009,04,24,06,59,-0.60
2009,04,24,07,00,-0.60
2009,04,24,07,01,-0.60
2009,04,24,07,02,-0.50
2009,04,24,07,03,-0.50
2009,04,24,07,04,-0.40
2009,04,24,07,05,-0.40
2009,04,24,07,06,-0.30
2009,04,24,07,07,-0.30
2009,04,24,07,08,-0.20
2009,04,24,07,09,-0.20
2009,04,24,07,10,-0.20
2009,04,24,07,11,-0.20
2009,04,24,07,12,-0.20
2009,04,24,07,13,-0.10
2009,04,24,07,14,-0.10
2009,04,24,07,15,-0.10
2009,04,24,07,16,-0.10
2009,04,24,07,17,0.00
2009,04,24,07,18,0.10
2009,04,24,07,19,0.20
2009,04,24,07,20,0.30
2009,04,24,07,21,0.50
2009,04,24,07,22,0.60
2009,04,24,07,23,0.70
2009,04,24,07,24,0.80
2009,04,24,07,25,0.80
2009,04,24,07,26,0.90
2009,04,24,07,27,1.00
2009,04,24,07,28,1.10
2009,04,24,07,29,1.30
2009,04,24,07,30,1.30
2009,04,24,07,31,1.30
2009,04,24,07,32,1.40
2009,04,24,07,33,1.60
2009,04,24,07,34,1.70
2009,04,24,07,35,1.80
2009,04,24,07,36,1.90
2009,04,24,07,37,2.00
2009,04,24,07,38,2.10
2009,04,24,07,39,2.20
2009,04,24,07,40,2.20
2009,04,24,07,41,2.30
2009,04,24,07,42,2.40
2009,04,24,07,43,2.50
2009,04,24,07,44,2.70
2009,04,24,07,45,2.80
2009,04,24,07,46,2.90
2009,04,24,07,47,3.10
2009,04,24,07,48,3.20
2009,04,24,07,49,3.30
2009,04,24,07,50,3.40
2009,04,24,07,51,3.60
2009,04,24,07,52,3.60
2009,04,24,07,53,3.70
2009,04,24,07,54,3.80
2009,04,24,07,55,3.90
2009,04,24,07,56,4.00
2009,04,24,07,57,4.10
2009,04,24,07,58,4.10
2009,04,24,07,59,4.10
2009,04,24,08,00,4.10
2009,04,24,08,01,4.20
2009,04,24,08,02,4.20
2009,04,24,08,03,4.30
2009,04,24,08,04,4.30
2009,04,24,08,05,4.40
2009,04,24,08,06,4.50
2009,04,24,08,07,4.60
2009,04,24,08,08,4.70
2009,04,24,08,09,4.70
2009,04,24,08,10,4.80
2009,04,24,08,11,4.80
2009,04,24,08,12,4.90
2009,04,24,08,13,5.00
2009,04,24,08,14,5.10
2009,04,24,08,15,5.10
2009,04,24,08,16,5.20
2009,04,24,08,17,5.30
2009,04,24,08,18,5.40
2009,04,24,08,19,5.50
2009,04,24,08,20,5.60
2009,04,24,08,21,5.70
2009,04,24,08,22,5.90
2009,04,24,08,23,6.00
2009,04,24,08,24,6.20
2009,04,24,08,25,6.40
2009,04,24,08,26,6.60
2009,04,24,08,27,6.70
2009,04,24,08,28,6.90
2009,04,24,08,29,7.10
2009,04,24,08,30,7.30
2009,04,24,08,31,7.50
2009,04,24,08,32,7.70
2009,04,24,08,33,7.80
2009,04,24,08,34,8.00
2009,04,24,08,35,8.10
2009,04,24,08,36,8.20
2009,04,24,08,37,8.20
2009,04,24,08,38,8.20
2009,04,24,08,39,8.20
2009,04,24,08,40,8.20
2009,04,24,08,41,8.30
2009,04,24,08,42,8.30
2009,04,24,08,43,8.40
2009,04,24,08,44,8.40
2009,04,24,08,45,8.50
2009,04,24,08,46,8.60
2009,04,24,08,47,8.60
2009,04,24,08,48,8.70
2009,04,24,08,49,8.70
2009,04,24,08,50,8.80
2009,04,24,08,51,8.80
2009,04,24,08,52,8.80
2009,04,24,08,53,8.80
2009,04,24,08,54,8.80
2009,04,24,08,55,8.80
2009,04,24,08,56,8.70
2009,04,24,08,57,8.80
2009,04,24,08,58,8.80
2009,04,24,08,59,8.80
2009,04,24,09,00,8.90
2009,04,24,09,01,8.90
2009,04,24,09,02,8.90
2009,04,24,09,03,8.90
2009,04,24,09,04,8.90
2009,04,24,09,05,9.00
2009,04,24,09,06,9.00
2009,04,24,09,07,9.00
2009,04,24,09,08,9.10
2009,04,24,09,09,9.10
2009,04,24,09,10,9.10
2009,04,24,09,11,9.10
2009,04,24,09,12,9.10
2009,04,24,09,13,9.10
2009,04,24,09,14,9.10
2009,04,24,09,15,9.10
2009,04,24,09,16,9.20
2009,04,24,09,17,9.20
2009,04,24,09,18,9.20
2009,04,24,09,19,9.20
2009,04,24,09,20,9.20
2009,04,24,09,21,9.20
2009,04,24,09,22,9.20
2009,04,24,09,23,9.20
2009,04,24,09,24,9.20
2009,04,24,09,25,9.20
2009,04,24,09,26,9.30
2009,04,24,09,27,9.30
2009,04,24,09,28,9.40
2009,04,24,09,29,9.40
2009,04,24,09,30,9.40
2009,04,24,09,31,9.40
2009,04,24,09,32,9.50
2009,04,24,09,33,9.60
2009,04,24,09,34,9.60
2009,04,24,09,35,9.60
2009,04,24,09,36,9.60
2009,04,24,09,37,9.70
2009,04,24,09,38,9.70
2009,04,24,09,39,9.70
2009,04,24,09,40,9.70
2009,04,24,09,41,9.80
2009,04,24,09,42,9.90
2009,04,24,09,43,9.90
2009,04,24,09,44,9.90
2009,04,24,09,45,10.00
2009,04,24,09,46,10.10
2009,04,24,09,47,10.20
2009,04,24,09,48,10.30
2009,04,24,09,49,10.40
2009,04,24,09,50,10.50
2009,04,24,09,51,10.60
2009,04,24,09,52,10.50
2009,04,24,09,53,10.50
2009,04,24,09,54,10.40
2009,04,24,09,55,10.30
2009,04,24,09,56,10.40
2009,04,24,09,57,10.40
2009,04,24,09,58,10.40
2009,04,24,09,59,10.40
2009,04,24,10,00,10.30
2009,04,24,10,01,10.30
2009,04,24,10,02,10.30
2009,04,24,10,03,10.40
2009,04,24,10,04,10.40
2009,04,24,10,05,10.50
2009,04,24,10,06,10.60
2009,04,24,10,07,10.60
2009,04,24,10,08,10.60
2009,04,24,10,09,10.70
2009,04,24,10,10,10.80
2009,04,24,10,11,10.90
2009,04,24,10,12,11.00
2009,04,24,10,13,11.20
2009,04,24,10,14,11.30
2009,04,24,10,15,11.40
2009,04,24,10,16,11.50
2009,04,24,10,17,11.60
2009,04,24,10,18,11.50
2009,04,24,10,19,11.30
2009,04,24,10,20,11.20
2009,04,24,10,21,11.10
2009,04,24,10,22,11.00
2009,04,24,10,23,11.10
2009,04,24,10,24,10.90
2009,04,24,10,25,10.80
2009,04,24,10,26,10.70
2009,04,24,10,27,10.70
2009,04,24,10,28,10.80
2009,04,24,10,29,10.80
2009,04,24,10,30,10.80
2009,04,24,10,31,10.70
2009,04,24,10,32,10.70
2009,04,24,10,33,10.70
2009,04,24,10,34,10.70
2009,04,24,10,35,10.80
2009,04,24,10,36,10.70
2009,04,24,10,37,10.70
2009,04,24,10,38,10.70
2009,04,24,10,39,10.70
2009,04,24,10,40,10.70
2009,04,24,10,41,10.70
2009,04,24,10,42,10.80
2009,04,24,10,43,10.80
2009,04,24,10,44,10.90
2009,04,24,10,45,10.90
2009,04,24,10,46,10.90
2009,04,24,10,47,10.90
2009,04,24,10,48,10.90
2009,04,24,10,49,10.90
2009,04,24,10,50,10.90
2009,04,24,10,51,11.00
2009,04,24,10,52,11.00
2009,04,24,10,53,11.10
2009,04,24,10,54,11.10
2009,04,24,10,55,11.20
2009,04,24,10,56,11.20
2009,04,24,10,57,11.20
2009,04,24,10,58,11.10
2009,04,24,10,59,11.10
2009,04,24,11,00,11.00
2009,04,24,11,01,11.00
2009,04,24,11,02,11.00
2009,04,24,11,03,10.90
2009,04,24,11,04,11.00
2009,04,24,11,05,11.00
2009,04,24,11,06,11.00
2009,04,24,11,07,11.00
2009,04,24,11,08,11.00
2009,04,24,11,09,10.90
2009,04,24,11,10,10.90
2009,04,24,11,11,10.90
2009,04,24,11,12,10.90
2009,04,24,11,13,10.80
2009,04,24,11,14,10.80
2009,04,24,11,15,10.90
2009,04,24,11,16,11.10
2009,04,24,11,17,11.20
2009,04,24,11,18,11.30
2009,04,24,11,19,11.40
2009,04,24,11,20,11.50
2009,04,24,11,21,11.60
2009,04,24,11,22,11.70
2009,04,24,11,23,11.70
2009,04,24,11,24,11.70
2009,04,24,11,25,11.80
2009,04,24,11,26,11.90
2009,04,24,11,27,11.90
2009,04,24,11,28,11.90
2009,04,24,11,29,11.80
2009,04,24,11,30,11.80
2009,04,24,11,31,11.80
2009,04,24,11,32,11.70
2009,04,24,11,33,11.60
2009,04,24,11,34,11.40
2009,04,24,11,35,11.40
2009,04,24,11,36,11.30
2009,04,24,11,37,11.30
2009,04,24,11,38,11.30
2009,04,24,11,39,11.30
2009,04,24,11,40,11.30
2009,04,24,11,41,11.10
2009,04,24,11,42,11.00
2009,04,24,11,43,11.00
2009,04,24,11,44,10.90
2009,04,24,11,45,10.90
2009,04,24,11,46,10.90
2009,04,24,11,47,11.10
2009,04,24,11,48,11.20
2009,04,24,11,49,11.30
2009,04,24,11,50,11.50
2009,04,24,11,51,11.70
2009,04,24,11,52,11.80
2009,04,24,11,53,11.80
2009,04,24,11,54,11.80
2009,04,24,11,55,11.80
2009,04,24,11,56,11.70
2009,04,24,11,57,11.70
2009,04,24,11,58,11.70
2009,04,24,11,59,11.60
2009,04,24,12,00,11.60
2009,04,24,12,01,11.40
2009,04,24,12,02,11.30
2009,04,24,12,03,11.20
2009,04,24,12,04,11.30
2009,04,24,12,05,11.40
2009,04,24,12,06,11.60
2009,04,24,12,07,11.70
2009,04,24,12,08,11.80
2009,04,24,12,09,11.90
2009,04,24,12,10,11.90
2009,04,24,12,11,11.90
2009,04,24,12,12,11.80
2009,04,24,12,13,11.90
2009,04,24,12,14,11.90
2009,04,24,12,15,11.80
2009,04,24,12,16,11.80
2009,04,24,12,17,11.80
2009,04,24,12,18,11.70
2009,04,24,12,19,11.80
2009,04,24,12,20,11.80
2009,04,24,12,21,11.70
2009,04,24,12,22,11.70
2009,04,24,12,23,11.60
2009,04,24,12,24,11.60
2009,04,24,12,25,11.60
2009,04,24,12,26,11.40
2009,04,24,12,27,11.40
2009,04,24,12,28,11.40
2009,04,24,12,29,11.50
2009,04,24,12,30,11.60
2009,04,24,12,31,11.60
2009,04,24,12,32,11.60
2009,04,24,12,33,11.70
2009,04,24,12,34,11.70
2009,04,24,12,35,11.60
2009,04,24,12,36,11.50
2009,04,24,12,37,11.50
2009,04,24,12,38,11.50
2009,04,24,12,39,11.60
2009,04,24,12,40,11.80
2009,04,24,12,41,11.90
2009,04,24,12,42,12.00
2009,04,24,12,43,12.20
2009,04,24,12,44,12.20
2009,04,24,12,45,12.20
2009,04,24,12,46,12.20
2009,04,24,12,47,12.20
2009,04,24,12,48,12.40
2009,04,24,12,49,12.50
2009,04,24,12,50,12.50
2009,04,24,12,51,12.60
2009,04,24,12,52,12.70
2009,04,24,12,53,12.70
2009,04,24,12,54,12.60
2009,04,24,12,55,12.60
2009,04,24,12,56,12.50
2009,04,24,12,57,12.60
2009,04,24,12,58,12.60
2009,04,24,12,59,12.50
2009,04,24,13,00,12.40
2009,04,24,13,01,12.30
2009,04,24,13,02,12.30
2009,04,24,13,03,12.20
2009,04,24,13,04,12.40
2009,04,24,13,05,12.40
2009,04,24,13,06,12.40
2009,04,24,13,07,12.20
2009,04,24,13,08,12.10
2009,04,24,13,09,11.90
2009,04,24,13,10,11.70
2009,04,24,13,11,11.60
2009,04,24,13,12,11.60
2009,04,24,13,13,11.60
2009,04,24,13,14,11.50
2009,04,24,13,15,11.40
2009,04,24,13,16,11.50
2009,04,24,13,17,11.50
2009,04,24,13,18,11.60
2009,04,24,13,19,11.70
2009,04,24,13,20,11.70
2009,04,24,13,21,11.80
2009,04,24,13,22,11.80
2009,04,24,13,23,11.80
2009,04,24,13,24,11.90
2009,04,24,13,25,12.00
2009,04,24,13,26,12.00
2009,04,24,13,27,12.00
2009,04,24,13,28,12.10
2009,04,24,13,29,12.20
2009,04,24,13,30,12.30
2009,04,24,13,31,12.20
2009,04,24,13,32,12.00
2009,04,24,13,33,11.90
2009,04,24,13,34,11.80
2009,04,24,13,35,11.70
2009,04,24,13,36,11.60
2009,04,24,13,37,11.60
2009,04,24,13,38,11.60
2009,04,24,13,39,11.60
2009,04,24,13,40,11.60
2009,04,24,13,41,11.70
2009,04,24,13,42,11.50
2009,04,24,13,43,11.40
2009,04,24,13,44,11.30
2009,04,24,13,45,11.30
2009,04,24,13,46,11.30
2009,04,24,13,47,11.20
2009,04,24,13,48,11.00
2009,04,24,13,49,10.80
2009,04,24,13,50,10.70
2009,04,24,13,51,10.80
2009,04,24,13,52,10.80
2009,04,24,13,53,10.80
2009,04,24,13,54,10.80
2009,04,24,13,55,10.90
2009,04,24,13,56,11.00
2009,04,24,13,57,11.20
2009,04,24,13,58,11.20
2009,04,24,13,59,11.20
2009,04,24,14,00,11.10
2009,04,24,14,01,11.20
2009,04,24,14,02,11.30
2009,04,24,14,03,11.40
2009,04,24,14,04,11.40
2009,04,24,14,05,11.40
2009,04,24,14,06,11.50
2009,04,24,14,07,11.60
2009,04,24,14,08,11.60
2009,04,24,14,09,11.80
2009,04,24,14,10,11.90
2009,04,24,14,11,11.90
2009,04,24,14,12,12.00
2009,04,24,14,13,12.10
2009,04,24,14,14,12.20
2009,04,24,14,15,12.20
2009,04,24,14,16,11.90
2009,04,24,14,17,11.60
2009,04,24,14,18,11.60
2009,04,24,14,19,11.60
2009,04,24,14,20,11.60
2009,04,24,14,21,11.60
2009,04,24,14,22,11.80
2009,04,24,14,23,12.00
2009,04,24,14,24,12.20
2009,04,24,14,25,12.30
2009,04,24,14,26,12.50
2009,04,24,14,27,12.70
2009,04,24,14,28,12.70
2009,04,24,14,29,12.50
2009,04,24,14,30,12.40
2009,04,24,14,31,12.30
2009,04,24,14,32,12.20
2009,04,24,14,33,12.20
2009,04,24,14,34,12.20
2009,04,24,14,35,12.10
2009,04,24,14,36,12.10
2009,04,24,14,37,12.10
2009,04,24,14,38,12.20
2009,04,24,14,39,12.30
2009,04,24,14,40,12.40
2009,04,24,14,41,12.50
2009,04,24,14,42,12.60
2009,04,24,14,43,12.70
2009,04,24,14,44,12.80
2009,04,24,14,45,13.00
2009,04,24,14,46,13.20
2009,04,24,14,47,13.30
2009,04,24,14,48,13.40
2009,04,24,14,49,13.50
2009,04,24,14,50,13.50
2009,04,24,14,51,13.60
2009,04,24,14,52,13.70
2009,04,24,14,53,13.70
2009,04,24,14,54,13.80
2009,04,24,14,55,13.80
2009,04,24,14,56,13.80
2009,04,24,14,57,13.70
2009,04,24,14,58,13.60
2009,04,24,14,59,13.60
2009,04,24,15,00,13.60
2009,04,24,15,01,13.70
2009,04,24,15,02,13.80
2009,04,24,15,03,13.80
2009,04,24,15,04,13.80
2009,04,24,15,05,13.90
2009,04,24,15,06,13.90
2009,04,24,15,07,14.10
2009,04,24,15,08,14.10
2009,04,24,15,09,14.30
2009,04,24,15,10,14.40
2009,04,24,15,11,14.50
2009,04,24,15,12,14.60
2009,04,24,15,13,14.70
2009,04,24,15,14,14.80
2009,04,24,15,15,14.90
2009,04,24,15,16,15.00
2009,04,24,15,17,15.00
2009,04,24,15,18,15.00
2009,04,24,15,19,15.00
2009,04,24,15,20,15.10
2009,04,24,15,21,15.30
2009,04,24,15,22,15.40
2009,04,24,15,23,15.60
2009,04,24,15,24,15.60
2009,04,24,15,25,15.60
2009,04,24,15,26,15.60
2009,04,24,15,27,15.60
2009,04,24,15,28,15.60
2009,04,24,15,29,15.60
2009,04,24,15,30,15.60
2009,04,24,15,31,15.60
2009,04,24,15,32,15.60
2009,04,24,15,33,15.60
2009,04,24,15,34,15.70
2009,04,24,15,35,15.80
2009,04,24,15,36,15.90
2009,04,24,15,37,16.00
2009,04,24,15,38,15.90
2009,04,24,15,39,15.90
2009,04,24,15,40,15.90
2009,04,24,15,41,15.90
2009,04,24,15,42,15.90
2009,04,24,15,43,15.90
2009,04,24,15,44,15.80
2009,04,24,15,45,15.70
2009,04,24,15,46,15.60
2009,04,24,15,47,15.60
2009,04,24,15,48,15.60
2009,04,24,15,49,15.70
2009,04,24,15,50,15.70
2009,04,24,15,51,15.60
2009,04,24,15,52,15.60
2009,04,24,15,53,15.50
2009,04,24,15,54,15.50
2009,04,24,15,55,15.40
2009,04,24,15,56,15.30
2009,04,24,15,57,15.40
2009,04,24,15,58,15.40
2009,04,24,15,59,15.40
2009,04,24,16,00,15.50
2009,04,24,16,01,15.50
2009,04,24,16,02,15.50
2009,04,24,16,03,15.40
2009,04,24,16,04,15.40
2009,04,24,16,05,15.40
2009,04,24,16,06,15.30
2009,04,24,16,07,15.40
2009,04,24,16,08,15.40
2009,04,24,16,09,15.50
2009,04,24,16,10,15.60
2009,04,24,16,11,15.60
2009,04,24,16,12,15.60
2009,04,24,16,13,15.60
2009,04,24,16,14,15.60
2009,04,24,16,15,15.50
2009,04,24,16,16,15.40
2009,04,24,16,17,15.40
2009,04,24,16,18,15.40
2009,04,24,16,19,15.40
2009,04,24,16,20,15.30
2009,04,24,16,21,15.20
2009,04,24,16,22,15.20
2009,04,24,16,23,15.10
2009,04,24,16,24,15.00
2009,04,24,16,25,15.10
2009,04,24,16,26,15.20
2009,04,24,16,27,15.30
2009,04,24,16,28,15.40
2009,04,24,16,29,15.50
2009,04,24,16,30,15.60
2009,04,24,16,31,15.60
2009,04,24,16,32,15.50
2009,04,24,16,33,15.50
2009,04,24,16,34,15.50
2009,04,24,16,35,15.40
2009,04,24,16,36,15.30
2009,04,24,16,37,15.20
2009,04,24,16,38,15.10
2009,04,24,16,39,15.10
2009,04,24,16,40,15.10
2009,04,24,16,41,15.10
2009,04,24,16,42,15.00
2009,04,24,16,43,15.10
2009,04,24,16,44,15.00
2009,04,24,16,45,15.00
2009,04,24,16,46,15.10
2009,04,24,16,47,15.20
2009,04,24,16,48,15.30
2009,04,24,16,49,15.40
2009,04,24,16,50,15.50
2009,04,24,16,51,15.50
2009,04,24,16,52,15.40
2009,04,24,16,53,15.40
2009,04,24,16,54,15.30
2009,04,24,16,55,15.30
2009,04,24,16,56,15.30
2009,04,24,16,57,15.40
2009,04,24,16,58,15.40
2009,04,24,16,59,15.40
2009,04,24,17,00,15.30
2009,04,24,17,01,15.30
2009,04,24,17,02,15.30
2009,04,24,17,03,15.30
2009,04,24,17,04,15.30
2009,04,24,17,05,15.40
2009,04,24,17,06,15.40
2009,04,24,17,07,15.50
2009,04,24,17,08,15.50
2009,04,24,17,09,15.50
2009,04,24,17,10,15.50
2009,04,24,17,11,15.40
2009,04,24,17,12,15.30
2009,04,24,17,13,15.20
2009,04,24,17,14,15.20
2009,04,24,17,15,15.10
2009,04,24,17,16,15.00
2009,04,24,17,17,15.00
2009,04,24,17,18,15.00
2009,04,24,17,19,15.00
2009,04,24,17,20,15.00
2009,04,24,17,21,15.00
2009,04,24,17,22,15.00
2009,04,24,17,23,15.00
2009,04,24,17,24,15.00
2009,04,24,17,25,15.00
2009,04,24,17,26,15.00
2009,04,24,17,27,14.80
2009,04,24,17,28,14.80
2009,04,24,17,29,14.70
2009,04,24,17,30,14.70
2009,04,24,17,31,14.70
2009,04,24,17,32,14.70
2009,04,24,17,33,14.80
2009,04,24,17,34,14.80
2009,04,24,17,35,14.80
2009,04,24,17,36,14.80
2009,04,24,17,37,14.80
2009,04,24,17,38,14.80
2009,04,24,17,39,14.80
2009,04,24,17,40,14.90
2009,04,24,17,41,15.00
2009,04,24,17,42,15.00
2009,04,24,17,43,15.00
2009,04,24,17,44,15.00
2009,04,24,17,45,15.00
2009,04,24,17,46,15.00
2009,04,24,17,47,15.00
2009,04,24,17,48,15.00
2009,04,24,17,49,15.00
2009,04,24,17,50,15.00
2009,04,24,17,51,15.00
2009,04,24,17,52,15.00
2009,04,24,17,53,15.00
2009,04,24,17,54,15.00
2009,04,24,17,55,15.00
2009,04,24,17,56,15.00
2009,04,24,17,57,15.00
2009,04,24,17,58,15.00
2009,04,24,17,59,15.00
2009,04,24,18,00,14.90
2009,04,24,18,01,14.80
2009,04,24,18,02,14.80
2009,04,24,18,03,14.70
2009,04,24,18,04,14.50
2009,04,24,18,05,14.30
2009,04,24,18,06,14.30
2009,04,24,18,07,14.20
2009,04,24,18,08,14.20
2009,04,24,18,09,14.10
2009,04,24,18,10,14.00
2009,04,24,18,11,14.00
2009,04,24,18,12,14.00
2009,04,24,18,13,13.90
2009,04,24,18,14,13.90
2009,04,24,18,15,13.90
2009,04,24,18,16,13.90
2009,04,24,18,17,13.80
2009,04,24,18,18,13.80
2009,04,24,18,19,13.70
2009,04,24,18,20,13.70
2009,04,24,18,21,13.60